WA0FW-1 Weather Reports


Display with metric or nautical units.
time (UTC)temp
F
wind
direction
speed
MPH
gust
MPH
rain 1hr
in
rain 24hr
in
rain mn
in
humidity
%
barometer
mb
20210510020809 50 0 0.0 0.0 0.00 0.00 0.00 45 1018.1
20210510015908 50 0 0.0 0.0 0.00 0.00 0.00 45 1018.1
20210510015009 50 0 0.0 0.0 0.00 0.00 0.00 43 1018.1
20210510014109 51 0 0.0 0.0 0.00 0.00 0.00 42 1018.1
20210510013209 53 0 0.0 0.0 0.00 0.00 0.00 41 1017.8
20210510012309 53 0 0.0 0.0 0.00 0.00 0.00 40 1017.8
20210510011409 54 0 0.0 0.0 0.00 0.00 0.00 41 1017.8
20210510010508 54 0 0.0 0.0 0.00 0.00 0.00 41 1017.5
20210510005609 55 0 0.0 0.0 0.00 0.00 0.00 39 1017.5
20210510004709 55 337 0.0 1.0 0.00 0.00 0.00 40 1017.5
20210510003809 55 0 0.0 0.0 0.00 0.00 0.00 41 1017.5
20210510002909 55 0 0.0 0.0 0.00 0.00 0.00 41 1017.1
20210510002017 56 0 0.0 0.0 0.00 0.00 0.00 39 1017.1
20210510001109 57 0 0.0 0.0 0.00 0.00 0.00 37 1017.1
20210510000208 57 0 0.0 0.0 0.00 0.00 0.00 36 1017.1
20210509235308 57 0 0.0 0.0 0.00 0.00 0.00 36 1017.1
20210509234408 58 0 0.0 0.0 0.00 0.00 0.00 36 1016.8
20210509233509 58 0 0.0 0.0 0.00 0.00 0.00 36 1016.8
20210509232608 57 45 0.0 1.0 0.00 0.00 0.00 36 1017.1
20210509231708 58 45 0.0 1.0 0.00 0.00 0.00 35 1016.8
20210509230808 59 45 1.0 1.0 0.00 0.00 0.00 35 1016.8
20210509225909 59 45 0.0 3.0 0.00 0.00 0.00 35 1016.8
20210509225008 60 48 0.0 3.0 0.00 0.00 0.00 35 1016.4
20210509224108 60 0 0.0 0.0 0.00 0.00 0.00 33 1016.4
20210509223208 63 0 0.0 0.0 0.00 0.00 0.00 32 1016.4
20210509222308 62 45 0.0 1.0 0.00 0.00 0.00 32 1016.4
20210509221408 62 292 0.0 0.0 0.00 0.00 0.00 33 1016.4
20210509220508 62 292 0.0 0.0 0.00 0.00 0.00 32 1016.4
20210509215608 63 181 0.0 3.0 0.00 0.00 0.00 32 1016.4
20210509214708 63 0 0.0 0.0 0.00 0.00 0.00 33 1016.8
20210509213808 64 45 0.0 3.0 0.00 0.00 0.00 33 1016.4
20210509212908 65 31 3.0 4.0 0.00 0.00 0.00 32 1016.4
20210509212008 66 45 1.0 3.0 0.00 0.00 0.00 32 1016.4
20210509211108 66 46 3.0 3.0 0.00 0.00 0.00 32 1016.4
20210509210208 65 45 0.0 4.0 0.00 0.00 0.00 33 1016.4
20210509205308 66 45 4.0 4.0 0.00 0.00 0.00 33 1016.4
20210509204408 65 0 0.0 0.0 0.00 0.00 0.00 33 1016.4
20210509203508 63 22 0.0 2.0 0.00 0.00 0.00 33 1016.4
20210509202608 65 337 2.0 3.0 0.00 0.00 0.00 32 1016.4
20210509201708 64 333 3.0 3.0 0.00 0.00 0.00 33 1016.8
20210509200808 64 1 0.0 3.0 0.00 0.00 0.00 33 1016.4
20210509195908 65 21 0.0 3.0 0.00 0.00 0.00 32 1016.4
20210509195008 64 55 1.0 6.0 0.00 0.00 0.00 34 1016.8
20210509194108 64 23 6.0 6.0 0.00 0.00 0.00 34 1016.4
20210509193208 63 0 0.0 0.0 0.00 0.00 0.00 34 1016.8
20210509192308 63 46 0.0 2.0 0.00 0.00 0.00 35 1016.8
20210509191408 63 46 2.0 2.0 0.00 0.00 0.00 35 1016.8
20210509190508 63 0 0.0 0.0 0.00 0.00 0.00 35 1016.4
20210509185608 62 0 0.0 0.0 0.00 0.00 0.00 36 1016.8
20210509184708 62 22 0.0 5.0 0.00 0.00 0.00 36 1016.8
20210509183808 62 0 0.0 0.0 0.00 0.00 0.00 38 1016.8
20210509182912 61 45 0.0 2.0 0.00 0.00 0.00 38 1016.8
20210509182008 61 225 0.0 2.0 0.00 0.00 0.00 38 1016.8
20210509181108 62 337 0.0 1.0 0.00 0.00 0.00 38 1017.1
20210509180208 62 0 0.0 0.0 0.00 0.00 0.00 40 1017.1
20210509175308 61 330 0.0 1.0 0.00 0.00 0.00 41 1017.1
20210509174408 59 23 0.0 0.0 0.00 0.00 0.00 43 1017.5
20210509173508 60 23 0.0 0.0 0.00 0.00 0.00 44 1017.5
20210509172608 58 45 0.0 2.0 0.00 0.00 0.00 46 1017.5
20210509171708 58 45 2.0 2.0 0.00 0.00 0.00 47 1017.1
20210509170807 58 0 0.0 0.0 0.00 0.00 0.00 48 1017.5
20210509165907 58 337 0.0 1.0 0.00 0.00 0.00 48 1017.5
20210509165008 57 333 1.0 1.0 0.00 0.00 0.00 50 1017.1
20210509164107 56 1 0.0 2.0 0.00 0.00 0.00 50 1017.5
20210509163207 55 1 0.0 2.0 0.00 0.00 0.00 52 1017.5
20210509162307 55 1 0.0 2.0 0.00 0.00 0.00 52 1017.5
20210509161407 55 0 0.0 0.0 0.00 0.00 0.00 56 1017.5
20210509160507 54 0 0.0 0.0 0.00 0.00 0.00 56 1017.5
20210509155608 53 26 0.0 1.0 0.00 0.00 0.00 58 1017.5
20210509154707 52 1 0.0 1.0 0.00 0.00 0.00 59 1017.5
20210509153807 51 0 0.0 0.0 0.00 0.00 0.00 62 1017.1
20210509152907 50 0 0.0 0.0 0.00 0.00 0.00 62 1017.5
20210509152007 49 0 0.0 0.0 0.00 0.00 0.00 63 1017.5
20210509151107 49 0 0.0 0.0 0.00 0.00 0.00 64 1017.5
20210509150207 48 45 0.0 2.0 0.00 0.00 0.00 66 1017.5
20210509145307 47 45 2.0 2.0 0.00 0.00 0.00 67 1017.5
20210509144407 47 45 0.0 3.0 0.00 0.00 0.00 68 1017.5
20210509143507 46 23 0.0 1.0 0.00 0.00 0.00 69 1017.5
20210509142607 44 0 0.0 0.0 0.00 0.00 0.00 70 1017.5
20210509141708 44 0 0.0 0.0 0.00 0.00 0.00 72 1017.5
20210509140807 44 0 0.0 0.0 0.00 0.00 0.00 72 1017.5
20210509135907 43 0 0.0 0.0 0.00 0.00 0.00 73 1017.1
20210509135007 42 0 0.0 0.0 0.00 0.00 0.00 73 1017.1
20210509134107 42 0 0.0 0.0 0.00 0.00 0.00 73 1017.1
20210509133207 41 46 0.0 1.0 0.00 0.00 0.00 74 1017.1
20210509132307 41 0 0.0 0.0 0.00 0.00 0.00 75 1017.1
20210509131411 40 0 0.0 0.0 0.00 0.00 0.00 75 1017.1
20210509130507 40 0 0.0 0.0 0.00 0.00 0.00 75 1017.1
20210509125607 40 0 0.0 0.0 0.00 0.00 0.00 76 1017.1
20210509124707 39 0 0.0 0.0 0.00 0.00 0.00 76 1017.1
20210509123807 39 0 0.0 0.0 0.00 0.00 0.00 76 1017.1
20210509122910 38 0 0.0 0.0 0.00 0.00 0.00 77 1017.1
20210509122007 37 0 0.0 0.0 0.00 0.00 0.00 78 1016.8
20210509121106 37 0 0.0 0.0 0.00 0.00 0.00 78 1016.8
20210509120207 37 0 0.0 0.0 0.00 0.00 0.00 78 1016.8
20210509115307 36 0 0.0 0.0 0.00 0.00 0.00 79 1016.8
20210509114423 35 0 0.0 0.0 0.00 0.00 0.00 79 1016.4
20210509113507 35 0 0.0 0.0 0.00 0.00 0.00 80 1016.4
20210509112607 34 0 0.0 0.0 0.00 0.00 0.00 80 1016.4
20210509111707 34 0 0.0 0.0 0.00 0.00 0.00 80 1016.1
20210509110807 34 0 0.0 0.0 0.00 0.00 0.00 80 1015.8
20210509105907 35 0 0.0 0.0 0.00 0.00 0.00 80 1016.1
20210509105006 35 0 0.0 0.0 0.00 0.00 0.00 79 1015.8
20210509104106 35 0 0.0 0.0 0.00 0.00 0.00 79 1015.8
20210509103206 35 0 0.0 0.0 0.00 0.00 0.00 79 1016.1
20210509102306 36 0 0.0 0.0 0.00 0.00 0.00 78 1015.8
20210509101406 36 0 0.0 0.0 0.00 0.00 0.00 78 1015.8
20210509100506 36 0 0.0 0.0 0.00 0.00 0.00 77 1015.4
20210509095606 36 0 0.0 0.0 0.00 0.00 0.00 77 1015.4
20210509094707 37 0 0.0 0.0 0.00 0.00 0.00 76 1015.4
20210509093806 37 0 0.0 0.0 0.00 0.00 0.00 76 1015.4
20210509092906 38 0 0.0 0.0 0.00 0.00 0.00 75 1015.4
20210509092006 38 0 0.0 0.0 0.00 0.00 0.00 74 1015.4
20210509091107 39 0 0.0 0.0 0.00 0.00 0.00 72 1015.4
20210509090206 39 0 0.0 0.0 0.00 0.00 0.00 72 1015.4
20210509085307 39 0 0.0 0.0 0.00 0.00 0.00 72 1015.4
20210509084406 40 0 0.0 0.0 0.00 0.00 0.00 71 1015.4
20210509083506 40 0 0.0 0.0 0.00 0.00 0.00 70 1015.4
20210509082606 40 0 0.0 0.0 0.00 0.00 0.00 70 1015.4
20210509081706 41 0 0.0 0.0 0.00 0.00 0.00 70 1015.8
20210509080806 41 0 0.0 0.0 0.00 0.00 0.00 70 1015.8
20210509075906 41 0 0.0 0.0 0.00 0.00 0.00 70 1015.8
20210509075006 42 0 0.0 0.0 0.00 0.00 0.00 70 1015.8
20210509074106 42 0 0.0 0.0 0.00 0.00 0.00 69 1015.8
20210509073207 42 0 0.0 0.0 0.00 0.00 0.00 70 1016.1
20210509072306 42 0 0.0 0.0 0.00 0.00 0.00 69 1016.1
20210509071406 43 0 0.0 0.0 0.00 0.00 0.00 69 1016.4
20210509070506 43 0 0.0 0.0 0.00 0.00 0.00 68 1016.4
20210509065606 44 0 0.0 0.0 0.00 0.00 0.00 68 1016.8
20210509064706 44 0 0.0 0.0 0.00 0.00 0.00 68 1017.1
20210509063806 44 0 0.0 0.0 0.00 0.00 0.00 68 1016.8
20210509062906 44 0 0.0 0.0 0.00 0.00 0.00 67 1016.8
20210509062006 45 0 0.0 0.0 0.00 0.00 0.00 67 1017.1
20210509061106 45 0 0.0 0.0 0.00 0.00 0.00 66 1017.1
20210509055558 45 0 0.0 0.0 0.00 0.00 0.00 67 1016.8
20210509054658 45 0 0.0 0.0 0.00 0.00 0.00 66 1016.8
20210509053758 45 0 0.0 0.0 0.00 0.00 0.00 67 1017.1
20210509052858 45 0 0.0 0.0 0.00 0.00 0.00 67 1016.8
20210509051958 45 0 0.0 0.0 0.00 0.00 0.00 67 1016.4
20210509051058 45 0 0.0 0.0 0.00 0.00 0.00 66 1016.4
20210509050158 45 0 0.0 0.0 0.00 0.00 0.00 65 1017.1
20210509045258 45 0 0.0 0.0 0.00 0.00 0.00 65 1017.1
20210509044358 45 0 0.0 0.0 0.00 0.00 0.00 64 1017.1
20210509043458 45 0 0.0 0.0 0.00 0.00 0.00 64 1017.1
20210509042558 45 0 0.0 0.0 0.00 0.00 0.00 64 1017.1
20210509041658 45 0 0.0 0.0 0.00 0.00 0.00 65 1016.8
20210509040758 46 0 0.0 0.0 0.00 0.00 0.00 64 1016.8
20210509035858 46 0 0.0 0.0 0.00 0.00 0.00 64 1017.1
20210509034958 46 0 0.0 0.0 0.00 0.00 0.00 64 1017.1
20210509034058 46 0 0.0 0.0 0.00 0.00 0.00 64 1017.5
20210509033158 47 0 0.0 0.0 0.00 0.00 0.00 62 1017.1
20210509032258 47 0 0.0 0.0 0.00 0.00 0.00 59 1017.1
20210509031358 47 0 0.0 0.0 0.00 0.00 0.00 59 1017.1
20210509030458 47 0 0.0 0.0 0.00 0.00 0.00 57 1017.1
20210509025558 47 0 0.0 0.0 0.00 0.00 0.00 57 1017.5
20210509024657 47 0 0.0 0.0 0.00 0.00 0.00 57 1017.1
20210509023757 48 0 0.0 0.0 0.00 0.00 0.00 57 1017.1
20210509022857 48 0 0.0 0.0 0.00 0.00 0.00 55 1016.8
20210509021957 48 0 0.0 0.0 0.00 0.00 0.00 55 1016.8